DW9433 Weather Reports


Display with metric or nautical units.
time (UTC)temp
F
wind
direction
speed
MPH
gust
MPH
rain 1hr
in
rain 24hr
in
rain mn
in
humidity
%
barometer
mb
20260905094543 76 173 0.0 0.0 0.00 0.00 0.00 90 1012.2
20260905093042 76 173 0.0 0.0 0.00 0.00 0.00 90 1012.1
20260905091555 76 173 0.0 0.0 0.00 0.00 0.00 89 1012.2
20260905090040 77 173 0.0 0.0 0.00 0.00 0.00 89 1012.1
20260905084540 77 173 0.0 0.0 0.00 0.00 0.00 89 1012.1
20260905083038 77 173 0.0 0.0 0.00 0.00 0.00 88 1012.1
20260905081537 77 173 0.0 0.0 0.00 0.00 0.00 88 1012.2
20260905080039 77 173 0.0 0.0 0.00 0.00 0.00 88 1012.2
20260905074548 78 173 0.0 0.0 0.00 0.00 0.00 87 1012.2
20260905073055 78 173 0.0 0.0 0.00 0.00 0.00 87 1012.2
20260905071532 78 173 0.0 0.0 0.00 0.00 0.00 86 1012.4
20260905070031 79 173 0.0 0.0 0.00 0.00 0.00 86 1012.4
20260905064528 79 173 0.0 0.0 0.00 0.00 0.00 85 1012.3
20260905063028 79 173 0.0 0.0 0.00 0.00 0.00 84 1012.4
20260905061525 80 173 0.0 0.0 0.00 0.00 0.00 83 1012.3
20260905060023 80 173 0.0 0.0 0.00 0.00 0.00 82 1012.3
20260905054521 80 173 0.0 0.0 0.00 0.00 0.00 81 1012.3
20260905053025 81 173 0.0 0.0 0.00 0.00 0.00 80 1012.3
20260905051518 81 173 0.0 0.0 0.00 0.00 0.00 80 1012.3
20260905050018 81 173 0.0 0.0 0.00 0.00 0.00 79 1012.3
20260905044519 82 173 0.0 0.0 0.00 0.00 0.00 78 1012.4
20260905043016 82 173 0.0 0.0 0.00 0.00 0.00 77 1012.5
20260905041514 82 173 0.0 0.0 0.00 0.00 0.00 77 1012.5
20260905040017 83 173 0.0 0.0 0.00 0.00 0.00 76 1012.5
20260905034513 84 173 0.0 0.0 0.00 0.00 0.00 74 1012.5
20260905033025 85 173 0.0 0.0 0.00 0.00 0.00 72 1012.5
20260905031520 86 173 0.0 0.0 0.00 0.00 0.00 69 1012.5
20260905030012 87 173 0.0 0.0 0.00 0.00 0.00 67 1012.6
20260905024512 88 173 0.0 0.0 0.00 0.00 0.00 65 1012.4
20260905023036 87 173 0.0 0.0 0.00 0.00 0.00 65 1012.4
20260905021510 86 134 0.0 1.0 0.00 0.00 0.00 67 1012.4
20260905020021 85 28 0.0 0.0 0.00 0.00 0.00 72 1012.2
20260905014511 86 140 0.0 0.0 0.00 0.00 0.00 71 1012.0
20260905013010 87 140 0.0 0.0 0.00 0.00 0.00 70 1011.9
20260905011509 87 140 0.0 0.0 0.00 0.00 0.00 69 1012.0
20260905010009 88 140 0.0 0.0 0.00 0.00 0.00 66 1011.8
20260905004514 89 140 0.0 0.0 0.00 0.00 0.00 65 1011.8
20260905003008 91 140 0.0 0.0 0.00 0.00 0.00 63 1011.7
20260905001517 92 140 0.0 0.0 0.00 0.00 0.00 62 1011.5
20260905000007 94 140 0.0 0.0 0.00 0.00 0.00 58 1011.4
20260904234507 96 140 0.0 0.0 0.00 0.00 0.00 53 1011.2
20260904233006 97 140 0.0 0.0 0.00 0.00 0.00 50 1011.2
20260904231511 97 142 0.0 0.0 0.00 0.00 0.00 47 1011.0
20260904230004 98 24 0.0 0.0 0.00 0.00 0.00 49 1011.1
20260904224503 98 23 0.0 0.0 0.00 0.00 0.00 49 1011.1
20260904223003 98 23 0.0 2.0 0.00 0.00 0.00 47 1011.2
20260904221604 99 15 0.0 1.0 0.00 0.00 0.00 45 1011.1
20260904220115 99 49 0.0 0.0 0.00 0.00 0.00 46 1011.2
20260904214559 99 51 0.0 0.0 0.00 0.00 0.00 45 1011.2
20260904213057 98 35 0.0 0.0 0.00 0.00 0.00 47 1011.3
20260904211559 99 29 0.0 0.0 0.00 0.00 0.00 47 1011.4
20260904204553 99 25 0.0 3.0 0.00 0.00 0.00 47 1011.9
20260904203050 100 360 0.0 2.0 0.00 0.00 0.00 44 1012.1
20260904201548 101 360 0.0 4.0 0.00 0.00 0.00 44 1012.3
20260904200046 100 57 0.0 0.0 0.00 0.00 0.00 47 1012.6
20260904194552 100 360 0.0 1.0 0.00 0.00 0.00 49 1012.9
20260904193043 101 341 0.0 0.0 0.00 0.00 0.00 47 1013.2
20260904191544 101 304 0.0 1.0 0.00 0.00 0.00 47 1013.4
20260904190040 101 186 0.0 0.0 0.00 0.00 0.00 47 1013.5
20260904184537 100 71 0.0 1.0 0.00 0.00 0.00 49 1013.6
20260904183039 99 5 0.0 5.0 0.00 0.00 0.00 50 1013.8
20260904181535 99 139 0.0 4.0 0.00 0.00 0.00 50 1014.1
20260904180035 99 5 0.0 1.0 0.00 0.00 0.00 50 1014.3
20260904174557 99 43 0.0 1.0 0.00 0.00 0.00 51 1014.5
20260904173032 99 161 0.0 1.0 0.00 0.00 0.00 52 1014.6
20260904171528 97 167 0.0 5.0 0.00 0.00 0.00 53 1014.8
20260904170026 97 22 0.0 1.0 0.00 0.00 0.00 56 1015.0
20260904164526 97 13 0.0 1.0 0.00 0.00 0.00 55 1015.1
20260904163025 97 46 0.0 1.0 0.00 0.00 0.00 56 1015.2
20260904161524 96 328 0.0 2.0 0.00 0.00 0.00 56 1015.2
20260904160024 97 24 0.0 1.0 0.00 0.00 0.00 57 1015.2
20260904154521 96 37 0.0 0.0 0.00 0.00 0.00 58 1015.3
20260904153023 95 200 0.0 0.0 0.00 0.00 0.00 60 1015.3
20260904151514 94 202 0.0 0.0 0.00 0.00 0.00 62 1015.2
20260904150013 93 200 0.0 0.0 0.00 0.00 0.00 63 1015.1
20260904144508 92 96 0.0 2.0 0.00 0.00 0.00 65 1015.1
20260904143005 90 196 0.0 1.0 0.00 0.00 0.00 67 1015.1
20260904141601 89 266 0.0 0.0 0.00 0.00 0.00 69 1015.1
20260904140055 86 318 0.0 0.0 0.00 0.00 0.00 74 1015.1
20260904134551 85 319 0.0 0.0 0.00 0.00 0.00 78 1015.0
20260904133054 82 319 0.0 0.0 0.00 0.00 0.00 82 1014.9
20260904131544 80 319 0.0 0.0 0.00 0.00 0.00 88 1014.9
20260904130042 77 319 0.0 0.0 0.00 0.00 0.00 92 1014.9
20260904124545 76 319 0.0 0.0 0.00 0.00 0.00 93 1014.8
20260904123103 75 319 0.0 0.0 0.00 0.00 0.00 94 1014.7
20260904121538 75 319 0.0 0.0 0.00 0.00 0.00 93 1014.5
20260904120039 75 319 0.0 0.0 0.00 0.00 0.00 94 1014.3
20260904114536 74 319 0.0 0.0 0.00 0.00 0.00 94 1014.2
20260904113047 74 319 0.0 0.0 0.00 0.00 0.00 94 1014.1
20260904111533 74 319 0.0 0.0 0.00 0.00 0.00 94 1014.0
20260904110038 74 319 0.0 0.0 0.00 0.00 0.00 93 1013.9
20260904104531 75 319 0.0 0.0 0.00 0.00 0.00 93 1013.8
20260904103031 75 319 0.0 0.0 0.00 0.00 0.00 93 1013.7
20260904101528 75 319 0.0 0.0 0.00 0.00 0.00 93 1013.7
20260904100026 75 319 0.0 0.0 0.00 0.00 0.00 93 1013.6